Location: Gettysburg
(39.8310°N, 77.2310°W)
Time: 12:26:34
(UTC-04:00)

ATLAS 2AS CENTAUR R/B - Visible Passes

Search period start: 31 October 2014 00:00
Search period end: 09 November 2014 23:00
Orbit: 917 x 1296 km, 63.7° (Epoch: 19 October)

Date Brightness Start Highest point End Pass type
(mag) Time Alt. Az. Time Alt. Az. Time Alt. Az.
31 Oct 5.3 03:10:31 14° N 03:11:22 14° NNE 03:15:19 10° NE visible
31 Oct 4.3 04:58:00 11° NNW 05:05:05 36° NE 05:12:15 10° ESE visible
31 Oct 3.1 06:48:38 10° NW 06:56:36 63° WSW 07:04:15 10° SSE visible
31 Oct 4.2 20:39:24 10° S 20:41:43 22° S 20:41:43 22° S visible
01 Nov 5.5 02:27:47 11° NNE 02:27:47 11° NNE 02:28:29 10° NNE visible
01 Nov 4.7 04:15:16 17° N 04:19:47 27° NE 04:26:18 10° E visible
01 Nov 3.1 06:03:46 10° NNW 06:11:56 89° ENE 06:19:46 10° SSE visible
01 Nov 3.8 19:55:47 10° SSE 19:59:48 26° SE 19:59:48 26° SE visible
01 Nov 4.5 21:45:04 10° SW 21:47:21 22° SW 21:47:21 22° SW visible
02 Nov 5.0 02:32:40 19° NNE 02:34:19 20° NNE 02:39:58 10° ENE visible
02 Nov 3.4 04:20:10 15° NNW 04:27:05 62° NE 04:34:51 10° SE visible
02 Nov 3.8 06:10:50 10° NW 06:17:39 31° WSW 06:24:15 10° SSW visible
02 Nov 4.1 18:13:04 10° SE 18:17:25 18° ESE 18:17:52 17° E visible
02 Nov 3.2 20:00:11 10° SSW 20:05:24 55° SW 20:05:24 55° SW visible
03 Nov 5.3 01:50:12 15° NE 01:50:12 15° NE 01:53:19 10° ENE visible
03 Nov 4.0 03:37:43 25° N 03:42:04 44° NE 03:49:32 10° ESE visible
03 Nov 3.3 05:25:33 10° NW 05:33:14 49° WSW 05:40:36 10° S visible
03 Nov 2.8 19:15:44 10° SSW 19:22:37 62° ESE 19:23:23 59° E visible
03 Nov 4.6 21:07:37 10° WSW 21:10:55 24° W 21:10:55 24° W visible
04 Nov 4.4 02:55:25 30° NNE 02:56:53 32° NE 03:03:48 10° E visible
04 Nov 3.0 04:42:57 22° NW 04:48:39 74° WSW 04:56:24 10° SSE visible
04 Nov 3.3 18:31:46 10° S 18:38:08 39° ESE 18:41:14 28° ENE visible
04 Nov 3.6 20:22:05 10° WSW 20:28:46 48° NW 20:28:46 48° NW visible
05 Nov 4.9 02:13:17 22° NE 02:13:17 22° NE 02:17:42 10° E visible
05 Nov 3.1 04:00:49 42° NNW 04:03:54 77° NE 04:11:44 10° SE visible
05 Nov 4.0 05:48:21 11° WNW 05:54:08 24° WSW 05:59:58 10° SSW visible
05 Nov 3.8 17:48:27 10° SSE 17:53:50 24° ESE 17:58:58 12° ENE visible
05 Nov 3.0 19:36:57 10° SW 19:44:02 70° NW 19:46:29 45° NNE visible
05 Nov 5.1 21:31:09 10° WNW 21:33:59 18° NW 21:33:59 18° NW visible
06 Nov 3.5 03:18:48 54° NE 03:18:59 54° NE 03:26:40 10° SE visible
06 Nov 3.5 05:06:21 26° WNW 05:09:48 38° WSW 05:16:45 10° S visible
06 Nov 2.8 18:52:14 10° SSW 18:59:16 80° ESE 19:04:03 26° NE visible
06 Nov 4.4 20:45:00 10° W 20:51:10 28° NW 20:51:33 28° NNW visible
07 Nov 4.5 02:36:53 29° E 02:36:53 29° E 02:41:11 10° ESE visible
07 Nov 3.0 04:24:26 55° W 04:25:18 58° WSW 04:32:52 10° SSE visible
07 Nov 3.0 18:07:58 10° S 18:14:42 52° ESE 18:21:28 13° NE visible
07 Nov 4.0 19:59:14 10° WSW 20:05:56 39° NW 20:08:57 29° N visible
07 Nov 5.4 21:55:31 10° NW 21:56:26 12° NW 21:56:26 12° NW visible
08 Nov 5.5 01:55:01 11° E 01:55:01 11° E 01:55:18 10° E visible
08 Nov 3.3 03:42:34 57° SSE 03:42:34 57° SSE 03:48:29 10° SSE visible
08 Nov 4.3 05:30:07 17° W 05:30:33 17° WSW 05:35:16 10° SW visible
08 Nov 3.6 17:24:14 10° S 17:30:17 32° ESE 17:36:49 10° NE visible
08 Nov 3.4 19:13:52 10° SW 19:20:52 55° NW 19:26:13 21° NNE visible
08 Nov 5.0 21:08:53 10° WNW 21:13:42 18° NNW 21:13:42 18° NNW visible
09 Nov 4.5 03:00:42 26° SE 03:00:42 26° SE 03:03:39 10° SE visible
09 Nov 4.0 04:48:15 26° SW 04:48:15 26° SW 04:52:40 10° SSW visible
09 Nov 2.9 18:28:54 10° SW 18:36:00 81° NW 18:43:23 12° NNE visible
09 Nov 4.7 20:22:32 10° W 20:28:17 23° NNW 20:30:51 20° N visible
